This is the latest recevied weather packets stored in our database for station/object MEGLR. If no packets are shown the sender has not sent any weather packets the latest 1 day(s).
| Time | Temp. | Humidity | Pressure | Rain* | Wind** | Luminosity | Snow |
|---|---|---|---|---|---|---|---|
| 1778019602 | 12.78° C | 84% | 0 hPa | - | 1.79 m/s, 270° | - | - |
| 1778019003 | 12.78° C | 84% | 0 hPa | - | 2.68 m/s, 285° | - | - |
| 1778018403 | 12.78° C | 81% | 0 hPa | - | 3.13 m/s, 255° | - | - |
| 1778017803 | 12.78° C | 81% | 0 hPa | - | 2.68 m/s, 255° | - | - |
| 1778017203 | 12.78° C | 81% | 0 hPa | - | 3.58 m/s, 250° | - | - |
| 1778016603 | 12.78° C | 80% | 0 hPa | - | 3.58 m/s, 250° | - | - |
| 1778016003 | 12.78° C | 80% | 0 hPa | - | 3.58 m/s, 245° | - | - |
| 1778015402 | 12.78° C | 82% | 0 hPa | - | 2.68 m/s, 250° | - | - |
| 1778014803 | 12.78° C | 82% | 0 hPa | - | 2.68 m/s, 250° | - | - |
| 1778014203 | 12.78° C | 82% | 0 hPa | - | 2.24 m/s, 235° | - | - |
| 1778013603 | 12.78° C | 82% | 0 hPa | - | 3.58 m/s, 235° | - | - |
| 1778013003 | 12.78° C | 81% | 0 hPa | - | 3.58 m/s, 235° | - | - |
| 1778012403 | 12.78° C | 82% | 0 hPa | - | 3.58 m/s, 235° | - | - |
| 1778011803 | 12.78° C | 82% | 0 hPa | - | 3.58 m/s, 230° | - | - |
| 1778011204 | 12.78° C | 83% | 0 hPa | - | 4.02 m/s, 230° | - | - |
| 1778010602 | 12.22° C | 82% | 0 hPa | - | 3.58 m/s, 230° | - | - |
| 1778010002 | 12.22° C | 83% | 0 hPa | - | 3.58 m/s, 235° | - | - |
| 1778009403 | 12.22° C | 84% | 0 hPa | - | 3.58 m/s, 235° | - | - |
| 1778008803 | 12.22° C | 85% | 0 hPa | - | 4.47 m/s, 235° | - | - |
| 1778008203 | 12.22° C | 84% | 0 hPa | - | 4.02 m/s, 230° | - | - |
| 1778007604 | 12.22° C | 84% | 0 hPa | - | 3.58 m/s, 230° | - | - |
| 1778007003 | 12.22° C | 83% | 0 hPa | - | 4.02 m/s, 225° | - | - |
| 1778006403 | 12.22° C | 83% | 0 hPa | - | 2.68 m/s, 235° | - | - |
| 1778005803 | 12.22° C | 84% | 0 hPa | - | 4.02 m/s, 225° | - | - |
| 1778005203 | 12.22° C | 84% | 0 hPa | - | 3.58 m/s, 230° | - | - |
* Rain since midnight (hover to see other rain measurements)
** Current wind speed in m/s (hover to see current wind gust speed)